Location: Casteau
(50.5142°N, 4.0161°E)
Time: 15:47:52
(UTC+00:00)

Meteor 1-21 - Pass Details

Date: 18 September 2020
Orbit: 845 x 887 km, 81.2° (Epoch: 24 October)

Event Time Altitude Azimuth Distance (km) Brightness Sun altitude
Rises 18:11:54 0° 349° (N) 3,435 7.6 -4.3°
Reaches altitude 10° 18:14:23 10° 353° (N) 2,490 6.9 -4.7°
Maximum altitude 18:19:59 64° 74° (ENE) 941 4.3 -5.5°
Drops below altitude 10° 18:25:31 10° 156° (SSE) 2,463 6.3 -6.4°
Sets 18:27:57 0° 160° (SSE) 3,394 7.0 -6.8°
